Regional Weather Roundup
Issued by NWS Cleveland, OH

Home | Current Version | Previous Version | Text Only | Print | Product List | Glossary Off
Versions: 1 2 3 4 5 6 7 8 9 10 11 12 13 14 15 16 17 18 19 20 21 22 23 24 25 26 27 28 29 30 31 32 33 34 35 36 37 38 39 40 41 42 43 44 45 46 47 48 49 50

000
ASUS41 KCLE 211700
RWRCLE
OHIO REGIONAL WEATHER ROUNDUP
NATIONAL WEATHER SERVICE WILMINGTON, OH
1200 PM EST TUE NOV 21 2017

NOTE: "FAIR" INDICATES FEW OR NO CLOUDS BELOW 12,000 FEET WITH NO
SIGNIFICANT WEATHER AND/OR OBSTRUCTIONS TO VISIBILITY.

OHZ001>008-015>018-024>027-034-035-043-044-211800-
   NORTHWEST OHIO

CITY           SKY/WX    TMP DP  RH WIND       PRES   REMARKS
DEFIANCE       FAIR      49  31  49 SW17G29   29.81R
FINDLAY        FAIR      50  31  48 SW23G30   29.82S
TOLEDO EXPRESS FAIR      50  32  50 SW20G35   29.77F
TOLEDO EXEC    FAIR      50  32  50 SW25G36   29.79F
LIMA           FAIR      47  32  56 SW17G24   29.83F
$$

OHZ009>014-019>023-028>033-038-089-211800-
   NORTHEAST OHIO

CITY           SKY/WX    TMP DP  RH WIND       PRES   REMARKS
CLE-HOPKINS    PTSUNNY   52  30  43 SW18G35   29.84S
CLE-LAKEFRONT  FAIR      53  28  38 S16G31    29.81F
CUY CO. ARPT   MOSUNNY   50  28  43 S17G23    29.83S
LORAIN-ELYRIA  FAIR      49  27  42 SW22G35   29.82S
ASHTABULA      FAIR      49  26  41 SW22G30   29.81F
AKRON-CANTON   PTSUNNY   50  27  40 S25G38    29.86F
WOOSTER        NOT AVBL
MANSFIELD      FAIR      50  30  46 S24G33    29.85F
YOUNGSTOWN     CLOUDY    50  26  39 SW15G28   29.86F
$$

OHZ042-051>053-060>062-070>072-077>081-211800-
  SOUTHWEST OHIO

CITY           SKY/WX    TMP DP  RH WIND       PRES   REMARKS
CINC-COVINGTON FAIR      51  31  46 SW17G30   29.94F
CINC-LUNKEN    FAIR      54  31  41 SW16G25   29.96F
HAMILTON       FAIR      53  30  41 SW12G22   29.95S
DAYTON         NOT AVBL
WRIGHT-PAT AFB FAIR      51  27  38 SW23      29.89F
DAYTON GENERAL FAIR      49  28  44 SW16G29   29.91F
WILMINGTON     FAIR      50  33  52 SW17G32   29.92F
$$

OHZ036-037-039>041-045>050-054>059-063>069-073>076-082>088-211800-
  CENTRAL AND SOUTHEAST OHIO

CITY           SKY/WX    TMP DP  RH WIND       PRES   REMARKS
COLUMBUS       PTSUNNY   49  31  49 S17G23    29.93F
OSU AIRPORT    FAIR      49  31  49 SW24G35   29.91F
BOLTON FIELD   SUNNY     48  30  49 SW14G23   29.94S
RICKENBACK AFB NOT AVBL
NEWARK         FAIR      51  26  37 SW18G25   29.92F
MARION         FAIR      47  30  51 SW16G30   29.87F
LANCASTER      FAIR      52  31  44 SW17G26   29.94F
ZANESVILLE     FAIR      52  31  44 SW16G32   29.94F
NEW PHILLY     FAIR      52  27  38 SW18G30   29.93F
$$




USA.gov is the U.S. government's official web portal to all federal, state and local government web resources and services.